Regional Weather Roundup
Issued by NWS

Home | Current Version | Previous Version | Graphics & Text | Print | Product List | Glossary Off
Versions: 1 2 3 4 5 6 7 8 9 10 11 12 13 14 15 16 17 18 19 20 21 22 23 24 25 26 27 28 29 30 31 32 33 34 35 36 37 38 39 40 41 42 43 44 45 46 47 48 49 50

000
ASUS43 KTOP 052008
RWRKS

WEATHER ROUNDUP FOR KANSAS
NATIONAL WEATHER SERVICE GOODLAND KS
200 PM CST THU MAR 05 2015

NOTE:  "FAIR" INDICATES FEW OR NO CLOUDS BELOW 12,000 FEET WITH NO
SIGNIFICANT WEATHER AND/OR OBSTRUCTIONS TO VISIBILITY.

KSZ001>006-013>018-027>032-041>047-052100-
NORTHWEST KANSAS

CITY           SKY/WX    TMP DP  RH WIND       PRES   REMARKS
GOODLAND       SUNNY     46   9  22 W12       30.26
HAYS           SUNNY     43   5  21 SW7       30.36F
HILL CITY      SUNNY     44  -2  14 VRB3G17   30.32
RUSSELL        SUNNY     42   4  20 SW8       30.35
$$

KSZ061>065-074>080-084>089-052100-
SOUTHWEST KANSAS

CITY           SKY/WX    TMP DP  RH WIND       PRES   REMARKS
DODGE CITY     SUNNY     43   9  24 W9G18     30.36
ELKHART          N/A     45  14  28 SW7         N/A
GARDEN CITY    SUNNY     43  11  27 W9        30.32
GREAT BEND     SUNNY     43   3  19 W15       30.37F
LIBERAL        SUNNY     37  25  60 SW10      30.37F WCI  30
PRATT          SUNNY     37  21  52 SW13      30.41F WCI  29
$$

KSZ066>073-081>083-090>101-052100-
SOUTHEAST KANSAS

CITY           SKY/WX    TMP DP  RH WIND       PRES   REMARKS
CHANUTE        SUNNY     36  12  37 CALM      30.50
COFFEYVILLE    SUNNY     38  14  37 NW7       30.52
HUTCHINSON     SUNNY     41  19  41 S9        30.42
MEDICINE LODGE   N/A     44  13  28 W9        30.42F
NEWTON         SUNNY     37  19  48 SW14      30.44F WCI  29
PARSONS        SUNNY     36  14  40 VRB3      30.52
WICHITA INTL   MOSUNNY   42  16  34 W10       30.44
WICHITA JABRA  SUNNY     41  16  36 SW9G18    30.44
WICHITA MCCONL SUNNY     42  15  33 SW12      30.44F
WINFIELD       SUNNY     43  15  32 SW12      30.48
$$

KSZ007>012-019>026-033>040-048>060-102>105-052100-
NORTHEAST KANSAS

CITY           SKY/WX    TMP DP  RH WIND       PRES   REMARKS
CONCORDIA      SUNNY     36   7  29 S7        30.41
EMPORIA        SUNNY     33  13  43 S9        30.47
LAWRENCE       SUNNY     30   3  31 SE3       30.52
MANHATTAN      SUNNY     37   8  30 SW7       30.45  HAZE
MARYSVILLE     SUNNY     32   7  34 SW8       30.44F
OLATHE IND     SUNNY     28   5  37 MISG      30.52
OLATHE EXE     SUNNY     30   3  31 VRB3      30.50
SALINA         SUNNY     42  10  27 MISG      30.42
TOPEKA BILLARD SUNNY     32   4  30 CALM      30.51
TOPEKA FORBES  SUNNY     32   4  30 CALM      30.49
$$



USA.gov is the U.S. government's official web portal to all federal, state and local government web resources and services.